FW2126 Weather Reports


Display with metric or nautical units.
time (UTC)temp
F
wind
direction
speed
MPH
gust
MPH
rain 1hr
in
rain 24hr
in
rain mn
in
humidity
%
barometer
mb
20260508021511 62 15 4.0 6.0 0.00 0.30 0.01 40 1013.3
20260508020012 61 360 3.0 4.0 0.00 0.30 0.01 46 1013.3
20260508014511 62 18 3.0 5.0 0.00 0.33 0.01 44 1013.2
20260508013009 67 13 2.0 4.0 0.00 0.33 0.01 37 1013.2
20260508011510 69 15 1.0 4.0 0.00 0.33 0.01 32 1013.2
20260508010009 70 19 6.0 9.0 0.00 0.33 0.01 28 1013.3
20260508004512 71 19 5.0 12.0 0.00 0.33 0.01 25 1013.3
20260508003006 72 22 5.0 13.0 0.00 0.33 0.01 26 1013.2
20260508001512 72 27 9.0 15.0 0.00 0.33 0.01 26 1013.4
20260508000004 72 23 11.0 17.0 0.00 0.33 0.01 27 1013.3
20260507233003 72 24 10.0 15.0 0.00 0.33 0.01 28 1013.4
20260507231600 72 24 7.0 18.0 0.00 0.33 0.01 27 1013.5
20260507230059 72 30 12.0 18.0 0.00 0.33 0.01 28 1013.6
20260507224601 72 27 9.0 18.0 0.00 0.33 0.01 28 1013.9
20260507223055 72 25 14.0 18.0 0.00 0.33 0.01 27 1014.0
20260507221553 71 22 11.0 16.0 0.00 0.33 0.01 30 1014.2
20260507220050 71 19 11.0 17.0 0.00 0.33 0.01 30 1014.3
20260507214552 70 21 14.0 22.0 0.00 0.33 0.01 31 1014.5
20260507213046 70 222 8.0 21.0 0.00 0.33 0.01 32 1015.0
20260507211544 71 285 10.0 20.0 0.00 0.33 0.01 30 1015.5
20260507210042 69 223 11.0 22.0 0.00 0.33 0.01 34 1015.8
20260507204544 69 194 9.0 21.0 0.00 0.33 0.01 35 1015.7
20260507203036 68 225 14.0 20.0 0.00 0.33 0.01 36 1016.3
20260507201536 68 360 13.0 18.0 0.00 0.33 0.01 38 1016.6
20260507200033 67 360 13.0 20.0 0.00 0.33 0.01 36 1017.0
20260507194530 67 245 10.0 22.0 0.00 0.33 0.01 37 1017.2
20260507193031 66 219 12.0 24.0 0.00 0.33 0.01 40 1017.5
20260507191525 66 259 13.0 24.0 0.00 0.33 0.01 43 1017.9
20260507190022 65 360 16.0 24.0 0.00 0.33 0.01 48 1018.1
20260507184518 64 254 17.0 26.0 0.00 0.33 0.01 48 1018.4
20260507183015 63 237 20.0 25.0 0.00 0.33 0.01 52 1018.8
20260507181512 62 360 18.0 26.0 0.00 0.33 0.01 54 1019.2
20260507180012 62 252 15.0 26.0 0.00 0.33 0.01 58 1019.6
20260507174509 61 254 16.0 26.0 0.00 0.33 0.01 61 1019.8
20260507173004 60 233 19.0 27.0 0.00 0.33 0.01 63 1020.3
20260507171605 59 360 19.0 29.0 0.00 0.33 0.01 66 1020.6
20260507170057 58 360 19.0 30.0 0.00 0.33 0.01 68 1020.8
20260507164552 57 360 19.0 27.0 0.00 0.33 0.01 70 1021.0
20260507163048 56 238 23.0 28.0 0.00 0.33 0.01 71 1021.0
20260507161546 55 237 23.0 28.0 0.00 0.33 0.01 75 1021.3
20260507160044 55 250 18.0 30.0 0.00 0.33 0.01 77 1021.3
20260507154539 53 272 19.0 30.0 0.00 0.33 0.01 76 1021.7
20260507153042 52 259 19.0 24.0 0.00 0.33 0.01 80 1021.8
20260507151533 50 259 19.0 25.0 0.00 0.33 0.01 82 1022.2
20260507150036 49 260 18.0 26.0 0.00 0.33 0.01 84 1023.0
20260507144528 48 246 19.0 24.0 0.00 0.33 0.01 85 1022.4
20260507143027 46 273 15.0 23.0 0.00 0.33 0.01 87 1022.4
20260507141520 45 360 18.0 24.0 0.00 0.33 0.01 88 1022.7
20260507140018 44 252 16.0 23.0 0.00 0.33 0.01 88 1022.6
20260507134515 43 251 17.0 25.0 0.00 0.33 0.01 89 1022.6
20260507133011 42 360 18.0 23.0 0.00 0.33 0.01 91 1023.0
20260507131513 40 248 16.0 21.0 0.00 0.33 0.01 92 1023.1
20260507130004 39 254 15.0 20.0 0.00 0.33 0.01 94 1023.0
20260507124502 37 249 13.0 16.0 0.01 0.33 0.01 94 1023.1
20260507123101 36 238 12.0 15.0 0.01 0.33 0.01 95 1023.0
20260507121608 35 242 11.0 14.0 0.01 0.33 0.01 95 1023.0
20260507114613 35 249 12.0 15.0 0.01 0.33 0.01 95 1023.2
20260507113054 35 246 10.0 13.0 0.00 0.32 0.00 95 1023.0
20260507111559 34 257 9.0 11.0 0.00 0.32 0.00 95 1022.9
20260507110054 34 256 8.0 11.0 0.00 0.32 0.00 95 1023.1
20260507104552 34 257 8.0 11.0 0.00 0.32 0.00 94 1023.3
20260507103049 35 264 6.0 10.0 0.00 0.32 0.00 95 1022.9
20260507101547 35 282 5.0 8.0 0.00 0.32 0.00 94 1023.3
20260507100046 35 267 5.0 9.0 0.00 0.32 0.00 94 1023.4
20260507094546 35 262 6.0 8.0 0.00 0.32 0.00 94 1023.5
20260507093052 35 258 5.0 8.0 0.00 0.32 0.00 94 1023.1
20260507091550 35 287 6.0 9.0 0.00 0.32 0.00 94 1023.2
20260507090041 35 269 3.0 6.0 0.00 0.32 0.00 94 1022.9
20260507084539 35 277 2.0 4.0 0.00 0.32 0.00 94 1022.9
20260507083039 35 276 2.0 4.0 0.00 0.32 0.00 94 1023.1
20260507081543 35 276 3.0 4.0 0.00 0.32 0.00 93 1023.4
20260507080032 36 314 0.0 0.0 0.00 0.32 0.00 93 1023.4
20260507074549 36 314 0.0 3.0 0.00 0.32 0.00 93 1023.5
20260507073028 36 315 3.0 4.0 0.00 0.32 0.00 93 1023.8
20260507071526 37 316 2.0 3.0 0.00 0.32 0.00 93 1024.0
20260507070024 38 317 2.0 5.0 0.00 0.32 0.00 93 1024.0
20260507064523 38 302 4.0 7.0 0.00 0.32 0.00 93 1024.1
20260507063025 38 5 2.0 3.0 0.00 0.32 0.00 93 1024.2
20260507061520 38 5 1.0 3.0 0.00 0.32 0.00 93 1024.3
20260507060025 38 5 1.0 3.0 0.00 0.32 0.00 93 1024.2
20260507054521 38 5 1.0 2.0 0.00 0.32 0.00 93 1024.1
20260507053019 38 5 1.0 3.0 0.00 0.32 0.00 93 1024.3
20260507051515 38 41 0.0 3.0 0.00 0.32 0.00 93 1024.4
20260507050024 39 42 2.0 3.0 0.01 0.32 0.00 93 1024.0
20260507044510 39 42 2.0 4.0 0.03 0.32 0.32 93 1024.1
20260507043010 39 44 3.0 6.0 0.08 0.32 0.32 93 1024.1
20260507041509 39 36 3.0 8.0 0.11 0.32 0.32 92 1024.1
20260507040009 39 28 6.0 12.0 0.15 0.31 0.31 92 1024.2
20260507034507 39 31 7.0 12.0 0.17 0.28 0.28 91 1024.2
20260507033016 40 42 4.0 11.0 0.19 0.24 0.24 91 1024.2
20260507031506 40 57 7.0 11.0 0.16 0.20 0.20 91 1023.4
20260507030004 40 43 5.0 11.0 0.12 0.15 0.15 90 1023.3
20260507024502 40 43 3.0 7.0 0.09 0.11 0.11 90 1023.5
20260507023106 40 47 3.0 11.0 0.04 0.05 0.05 90 1023.0